sat.trackr.live / text

‹ back to catalog

STARLINK-36811

NORAD 67808 · 2026-032M

PAYLOAD ACTIVE UNKNOWN

§ Identity

Operator
Country
US
Launch date
2026-02-15
Launch site
AFWTR
Launch vehicle
Mass (kg)
RCS (m²)

Purposes: comms

External: N2YO · Heavens-Above · Gunter

§ Orbital elements

Epoch: 2026-09-19T23:00:39.463776Z

Period
93.91 min
Inclination
97.2843°
Eccentricity
0.0001600
Mean motion
15.33437062 rev/d
Perigee alt
464.5 km
Apogee alt
466.7 km
Semi-major
6,843.7 km
B*
4.0371e-4
RAAN
89.3942°
Arg perigee
93.2355°
Mean anomaly
266.9071°
Rev number
3,473

§ Raw data

STARLINK-368111 67808U 26032M   26262.95879009  .00012977  00000+0  40371-3 0  99902 67808  97.2843  89.3942 0001600  93.2355 266.9071 15.33437062 34735

JSON: /api/v1/satellites/67808 · /tle

For live sub-satellite position, see the globe view (requires WebGL).

§ Visibility from observer

Set your observer location to see the next 7 days of passes ≥ 10°. The values pass through the URL so the page stays shareable.

No JS? Fill the form by hand. The geolocation button needs JavaScript.